Regional Weather Roundup
Issued by NWS Charleston, SC

Current Version | Previous Version | Graphics & Text | Print | Product List | Glossary On
Versions: 1 2 3 4 5 6 7 8 9 10 11 12 13 14 15 16 17 18 19 20 21 22 23 24 25 26 27 28 29 30 31 32 33 34 35 36 37 38 39 40 41 42 43 44 45 46 47 48 49 50
000 ASUS42 KCHS 241625 RWRCHS REGIONAL WEATHER ROUNDUP NATIONAL WEATHER SERVICE CHARLESTON SC 1100 AM EST MON NOV 24 2014 NOTE: "FAIR" INDICATES FEW OR NO CLOUDS BELOW 12,000 FEET WITH NO SIGNIFICANT WEATHER AND/OR OBSTRUCTIONS TO VISIBILITY. NOT ALL STATIONS ARE QUALITY CONTROLLED BY THE NATIONAL WEATHER SERVICE. USE DATA WITH CAUTION...ESPECIALLY DEWPOINT OBSERVATIONS. SCZ027-030-031-034>040-042>050-241700- ...SOUTHEAST SOUTH CAROLINA... CITY SKY/WX TMP DP RH WIND PRES REMARKS N CHARLESTON CLOUDY 71 69 93 SW17 29.89F WATERFRONT PRK N/A 68 N/A N/A SW15G23 N/A MOUNT PLEASANT CLOUDY 72 72 100 SW13G22 29.89F JOHNS ISLAND CLOUDY 70 70 100 SW12G17 29.90S FOG PINOPOLIS N/A 73 70 88 SW8G17 29.81F MONCKS CORNER CLOUDY 73 72 94 SW12G17 29.87S SUMMERVILLE CLOUDY 72 72 100 S6 29.88F BEAUFORT MCAS CLOUDY 70 67 90 S9 29.87F FOG BEAUFORT ARPT PTSUNNY 72 70 94 S10G18 29.88F FOG HILTON HEAD IS CLOUDY 70 70 100 S10G20 29.91S FOG WALTERBORO CLOUDY 73 N/A N/A S8 29.87F ALLENDALE LGT RAIN 70 68 94 VRB3 29.86R ...SOUTHERN MIDLANDS AND PEE DEE... CITY SKY/WX TMP DP RH WIND PRES REMARKS GEORGETOWN NOT AVBL KINGSTREE NOT AVBL ORANGEBURG RAIN 68 65 90 SW8 29.86F FOG BARNWELL LGT RAIN 68 68 100 CALM 29.87F AIKEN CLOUDY 68 68 100 SW8 29.88F MANNING NOT AVBL COLUMBIA CLOUDY 71 65 81 S12 29.85F SUMTER CLOUDY 70 68 94 S9 29.84F FLORENCE CLOUDY 70 67 90 S9 29.86S MYRTLE BEACH RAIN 72 68 88 SW14 29.89S FOG N MYRTLE BEACH CLOUDY 65 64 97 SW14 29.90S FOG $$ GAZ063-065-086>088-099>101-113>116-118-119-134>141-150-241700- ...SOUTHEAST GEORGIA... CITY SKY/WX TMP DP RH WIND PRES REMARKS SAVANNAH ARPT PTSUNNY 79 70 74 S13 29.88F HUNTER AAF MOSUNNY 75 72 88 S7 29.88S FORT STEWART PTSUNNY 77 70 80 S10G21 29.87F STATESBORO NOT AVBL SYLVANIA LGT RAIN 70 69 96 SW7G18 29.87R CLAXTON RAIN 70 70 100 SW3 29.88R ...CSRA...CENTRAL AND FAR SOUTHEAST GEORGIA... CITY SKY/WX TMP DP RH WIND PRES REMARKS THOMSON PTSUNNY 73 70 89 SW7 29.88S AUGUSTA-BUSH CLOUDY 69 67 93 S7 29.85S AUGUSTA-DANIEL LGT RAIN 69 66 90 S5 29.86S SWAINSBORO CLOUDY 72 72 100 W5 29.88S VIDALIA RAIN 70 70 100 SW10 29.89R HAZLEHURST CLOUDY 71 70 99 CALM 29.88R ALMA LGT RAIN 68 66 93 SW7 29.91R FOG WAYCROSS CLOUDY 78 75 88 SW13G18 29.90S JESUP CLOUDY 79 73 83 SW12G20 29.90S BAXLEY LGT RAIN 70 68 94 SW8 29.91R BRUNSWICK CLOUDY 81 70 69 SW14G26 29.91F SAINT SIMONS PTSUNNY 75 68 78 S5 29.91F $$ SCZ027-028-034-036>038-045-046-048>050-GAZ119-141-241700- ...LAKE AND SUPPLEMENTAL COASTAL OBSERVATIONS... STATION/POSITION TIME TEMP WIND PRES WAVE SWELL AIR SEA DIR/SP/G HT/PER HT/PER/DIR (UTC) (F) (DEG/KT/KT) (MB) (FT/S) (FT/S/D) UPR LAKE MARION NOT AVBL WINYAH BAY 1600 69 210/ 13 1012.0S LAKE MURRAY 1500 65 210/ 7/ 9 1010.2S ACE BASIN NERRS 1600 67 CALM 1012.0S FORT PULASKI 1600 65 190/ 7/ 13 1012.5F SAPELO ISLAND NOT AVBL $$ ANZ835-935-AMZ111-154-330-350-352-354-370-450-454-472-241700- ...C-MAN AND BUOY OBSERVATIONS... STATION/POSITION TIME TEMP WIND PRES WAVE SWELL AIR SEA DIR/SP/G HT/PER HT/PER/DIR (UTC) (F) (DEG/KT/KT) (MB) (FT/S) (FT/S/D) FOLLY BEACH CMAN 1600 65 220/ 11/ 12 1012.9F BUOY 41004 1600 76 75 210/ 21/ 25 1012.1S 9/ 9 7/ 9 BUOY 41008 1600 68 65 190/ 14/ 16 1012.8F 5/ 9 3/110/ 9 CAPERS NEARSHORE 1500 65 230/ 10/ 12 N/A FRIPP NEARSHORE NOT AVBL STATION/POSITION TIME TEMP WIND PRES WAVE SWELL AIR SEA DIR/SP/G HT/PER HT/PER/DIR (UTC) (F) (DEG/KT/KT) (MB) (FT/S) (FT/S/D) 5E ST. MARYS GA 1600 62 N/A 4/ 9 2/120/11 FRYING PAN BUOY 1600 72 68 230/ 10/ 12 1013.9R 9/10 8/140/10 BUOY 41025 1600 76 210/ 19/ 25 1012.8S 10/ 9 7/140/ 9 CAPE LOOKOUT NC 1600 69 220/ 10/ 13 1012.7F BUOY 41002 1508 75 73 200/ 17/ 19 1018.4S 9/ 8 5/180/13 BUOY 41010 1600 79 78 180/ 16/ 19 1016.4F 9/10 7/130/10 ST AUGUSTINE FL 1600 79 220/ 12/ 16 1014.9F $$

USA.gov is the U.S. government's official web portal to all federal, state and local government web resources and services.